EW5770 Genova IT current weather conditions

sailwx.info

Wind from 357

Air temperature 11.7° C
Dewpoint 9.6° C

Last reported at 2019-Dec-09 00:04 UTC.
Time now 2019-Dec-09 00:25 UTC

Location: N 44°27' E 008°59'.
View on Google Maps.

See reports from other nearby stations

  
Tides and Currents Weather Stations Pressure Air Temp Water Temp Dewpoint Dewpoint Depression Visibility Wind Speed Wind Dir Waves Ship Positions
date/time (UTC)wind fromknots sea level pressurealtimeterstation pressurevisibilityair tempwater tempwave heightnotes
2019-Dec-09 00:04 357 11.7
2019-Dec-09 00:00 345 0 gusting 2 11.7
2019-Dec-08 23:55 013 1 gusting 3 11.7
2019-Dec-08 23:50 022 2 gusting 3 12.2
2019-Dec-08 23:45 025 0 gusting 1 12.2
2019-Dec-08 23:40 006 0 gusting 1 12.2
2019-Dec-08 23:35 355 12.2
2019-Dec-08 23:29 355 12.2
2019-Dec-08 23:25 032 12.2
2019-Dec-08 23:20 032 0 gusting 0 12.2
2019-Dec-08 23:15 150 12.8
2019-Dec-08 23:10 148 12.8
2019-Dec-08 23:05 148 12.8
2019-Dec-08 23:00 229 12.8
2019-Dec-08 22:55 219 12.8
2019-Dec-08 22:50 219 1 gusting 3 12.8
2019-Dec-08 22:45 205 13.3
2019-Dec-08 22:40 205 0 gusting 3 13.3
2019-Dec-08 22:35 171 0 gusting 5 13.3
2019-Dec-08 22:30 248 0 gusting 5 13.3
2019-Dec-08 22:25 204 1 gusting 4 13.3
2019-Dec-08 22:20 173 1 gusting 5 13.3
2019-Dec-08 22:15 182 1 gusting 5 13.3
2019-Dec-08 22:09 173 2 gusting 4 13.3
2019-Dec-08 22:05 224 1 gusting 4 13.3
2019-Dec-08 22:00 153 1 gusting 4 13.3
2019-Dec-08 21:55 181 1 gusting 4 13.3
2019-Dec-08 21:50 170 1 gusting 7 13.3
2019-Dec-08 21:45 212 1 gusting 7 13.3
2019-Dec-08 21:40 161 1 gusting 7 13.3
2019-Dec-08 21:35 209 3 gusting 7 13.3
2019-Dec-08 21:30 102 3 gusting 7 13.3
2019-Dec-08 21:25 154 4 gusting 7 13.3
2019-Dec-08 21:20 154 2 gusting 8 13.3
2019-Dec-08 21:15 164 3 gusting 8 13.3
2019-Dec-08 21:10 213 3 gusting 8 13.3
2019-Dec-08 21:05 245 4 gusting 8 13.3
2019-Dec-08 21:00 103 3 gusting 11 13.3
2019-Dec-08 20:55 185 5 gusting 11 13.3
2019-Dec-08 20:50 198 3 gusting 7 13.3
2019-Dec-08 20:45 192 3 gusting 8 13.3
2019-Dec-08 20:40 160 3 gusting 9 13.3
2019-Dec-08 20:35 212 5 gusting 9 13.3
2019-Dec-08 20:30 225 5 gusting 10 13.3
2019-Dec-08 20:25 181 5 gusting 10 13.3
2019-Dec-08 20:20 158 5 gusting 10 13.3
2019-Dec-08 20:15 170 3 gusting 12 13.3
2019-Dec-08 20:10 244 3 gusting 12 13.3
2019-Dec-08 20:05 264 3 gusting 7 13.3
2019-Dec-08 20:00 226 1 gusting 6 13.3
2019-Dec-08 19:55 156 13.3
2019-Dec-08 19:50 304 13.3
2019-Dec-08 19:45 304 13.3
2019-Dec-08 19:40 155 13.3
2019-Dec-08 19:35 155 13.3
2019-Dec-08 19:30 155 13.3
2019-Dec-08 19:25 155 13.9
2019-Dec-08 19:20 179 0 gusting 1 13.9
2019-Dec-08 19:15 192 13.9
2019-Dec-08 19:10 215 13.9
2019-Dec-08 19:05 236 13.9
2019-Dec-08 19:00 203 13.9
2019-Dec-08 18:54 116 0 gusting 2 13.9
2019-Dec-08 18:50 235 0 gusting 1 13.9
2019-Dec-08 18:45 194 0 gusting 3 13.9
2019-Dec-08 18:40 136 0 gusting 5 13.9
2019-Dec-08 18:34 217 1 gusting 5 13.9
2019-Dec-08 18:30 150 0 gusting 4 13.9
2019-Dec-08 18:25 199 0 gusting 5 13.9
2019-Dec-08 18:20 129 2 gusting 5 13.9
2019-Dec-08 18:09 191 0 gusting 4 13.9
2019-Dec-08 18:05 245 1 gusting 4 13.9
2019-Dec-08 18:00 227 0 gusting 3 13.9
2019-Dec-08 17:50 195 0 gusting 6 13.9
2019-Dec-08 17:45 204 1 gusting 6 13.9
2019-Dec-08 17:39 206 2 gusting 5 13.9
2019-Dec-08 17:35 198 1 gusting 4 13.9
2019-Dec-08 17:30 234 0 gusting 4 13.9
2019-Dec-08 17:25 182 1 gusting 5 13.9
2019-Dec-08 17:20 207 0 gusting 5 13.9
2019-Dec-08 17:15 263 13.9
2019-Dec-08 17:10 075 1 gusting 5 13.9
2019-Dec-08 17:05 227 13.9
2019-Dec-08 17:00 116 13.9
2019-Dec-08 16:55 158 1 gusting 6 13.9
2019-Dec-08 16:50 231 2 gusting 6 13.9
2019-Dec-08 16:45 160 1 gusting 4 13.9
2019-Dec-08 16:40 212 1 gusting 4 13.9
2019-Dec-08 16:30 245 0 gusting 6 13.9
2019-Dec-08 16:25 116 0 gusting 6 13.9
2019-Dec-08 16:20 145 2 gusting 6 13.9
2019-Dec-08 16:15 217 1 gusting 8 13.9
2019-Dec-08 16:10 208 2 gusting 8 13.9
2019-Dec-08 16:05 231 2 gusting 12 13.9
2019-Dec-08 16:00 097 13.9
2019-Dec-08 15:54 169 4 gusting 8 13.9
2019-Dec-08 15:50 135 1 gusting 9 13.9
2019-Dec-08 15:45 231 2 gusting 9 14.4
2019-Dec-08 15:40 239 1 gusting 9 14.4
2019-Dec-08 15:34 270 4 gusting 9 14.4
2019-Dec-08 15:30 172 4 gusting 7 14.4
2019-Dec-08 15:25 178 1 gusting 7 14.4
2019-Dec-08 15:20 168 4 gusting 10 14.4
2019-Dec-08 15:10 207 3 gusting 8 14.4
2019-Dec-08 15:05 249 2 gusting 6 14.4
2019-Dec-08 15:00 215 3 gusting 6 14.4
2019-Dec-08 14:55 268 1 gusting 6 14.4
2019-Dec-08 14:50 260 1 gusting 7 14.4
2019-Dec-08 14:45 223 1 gusting 6 14.4
2019-Dec-08 14:40 225 3 gusting 9 14.4
2019-Dec-08 14:35 257 6 gusting 9 14.4
2019-Dec-08 14:30 113 2 gusting 8 15.0
2019-Dec-08 14:25 113 4 gusting 11 14.4
2019-Dec-08 14:20 253 2 gusting 11 14.4
2019-Dec-08 14:15 222 4 gusting 7 15.0
2019-Dec-08 14:10 239 2 gusting 9 15.0
2019-Dec-08 14:05 230 3 gusting 9 15.0
2019-Dec-08 13:59 233 3 gusting 6 15.0
2019-Dec-08 13:55 252 3 gusting 6 15.0
2019-Dec-08 13:50 238 0 gusting 3 15.0
2019-Dec-08 13:45 308 0 gusting 6 15.0
2019-Dec-08 13:40 191 3 gusting 10 15.0
2019-Dec-08 13:35 201 5 gusting 10 15.0
2019-Dec-08 13:29 250 3 gusting 11 15.0
2019-Dec-08 13:25 117 6 gusting 11 15.0
2019-Dec-08 13:20 205 2 gusting 7 15.0
2019-Dec-08 13:10 228 5 gusting 10 15.0
2019-Dec-08 13:05 091 1 gusting 6 15.0
2019-Dec-08 13:00 255 2 gusting 6 15.0
2019-Dec-08 12:55 269 1 gusting 8 15.0
2019-Dec-08 12:50 159 4 gusting 8 15.0
2019-Dec-08 12:40 205 1 gusting 9 15.0
2019-Dec-08 12:35 224 4 gusting 9 15.0
2019-Dec-08 12:30 243 3 gusting 8 15.0
2019-Dec-08 12:25 154 4 gusting 8 15.0
2019-Dec-08 12:20 229 0 gusting 8 15.0
2019-Dec-08 12:10 162 3 gusting 8 15.0
2019-Dec-08 12:00 190 0 gusting 6 15.0
2019-Dec-08 11:55 269 1 gusting 6 15.0
2019-Dec-08 11:50 205 0 gusting 6 15.0
2019-Dec-08 11:45 248 3 gusting 6 15.0
2019-Dec-08 11:40 229 3 gusting 6 15.0
2019-Dec-08 11:35 241 2 gusting 9 15.0
2019-Dec-08 11:25 207 3 gusting 7 15.0
2019-Dec-08 11:20 252 0 gusting 6 15.0
2019-Dec-08 11:15 247 3 gusting 6 15.0
2019-Dec-08 11:05 206 3 gusting 8 15.0
2019-Dec-08 11:00 217 5 gusting 8 15.0
2019-Dec-08 10:55 089 4 gusting 8 15.0
2019-Dec-08 10:50 136 15.0
2019-Dec-08 10:45 064 1 gusting 4 15.0
2019-Dec-08 10:40 150 1 gusting 4 14.4
2019-Dec-08 10:35 169 1 gusting 3 14.4
2019-Dec-08 10:30 236 14.4
2019-Dec-08 10:25 244 1 gusting 6 14.4
2019-Dec-08 10:20 154 3 gusting 6 13.9
2019-Dec-08 10:15 211 0 gusting 6 13.9
2019-Dec-08 10:10 205 1 gusting 6 13.9
2019-Dec-08 10:05 254 0 gusting 6 13.9
2019-Dec-08 10:00 162 1 gusting 6 13.9
2019-Dec-08 09:55 245 1 gusting 4 13.3
2019-Dec-08 09:50 019 13.3
2019-Dec-08 09:45 004 0 gusting 1 12.8
2019-Dec-08 09:40 072 12.8
2019-Dec-08 09:35 129 12.2
2019-Dec-08 09:30 129 12.2
2019-Dec-08 09:25 100 12.2
2019-Dec-08 09:20 073 11.7
2019-Dec-08 09:10 342 0 gusting 4 11.7
2019-Dec-08 09:05 014 0 gusting 1 11.7
2019-Dec-08 09:00 326 0 gusting 1 11.1
2019-Dec-08 08:55 325 11.1
2019-Dec-08 08:50 027 1 gusting 2 11.1
2019-Dec-08 08:45 058 11.1
2019-Dec-08 08:40 246 10.6
2019-Dec-08 08:35 246 10.6
2019-Dec-08 08:30 058 1 gusting 4 10.6
2019-Dec-08 08:25 025 3 gusting 4 10.6
2019-Dec-08 08:20 355 1 gusting 2 10.6
2019-Dec-08 08:10 044 1 gusting 3 10.6
2019-Dec-08 08:05 046 1 gusting 2 10.6
2019-Dec-08 08:00 055 10.6
2019-Dec-08 07:55 025 1 gusting 3 10.6
2019-Dec-08 07:50 345 1 gusting 4 10.6
2019-Dec-08 07:45 066 2 gusting 4 10.6
2019-Dec-08 07:40 032 2 gusting 3 10.6
2019-Dec-08 07:30 072 3 gusting 4 10.0
2019-Dec-08 07:25 019 2 gusting 3 10.0
2019-Dec-08 07:20 034 1 gusting 3 10.0
2019-Dec-08 07:10 023 3 gusting 4 9.4
2019-Dec-08 07:05 017 1 gusting 4 9.4
2019-Dec-08 07:00 055 3 gusting 4 9.4
2019-Dec-08 06:55 009 2 gusting 2 9.4
2019-Dec-08 06:50 031 1 gusting 2 9.4
2019-Dec-08 06:45 004 0 gusting 2 9.4
2019-Dec-08 06:40 087 9.4
2019-Dec-08 06:35 342 9.4
2019-Dec-08 06:30 006 10.0
2019-Dec-08 06:25 029 9.4
2019-Dec-08 06:20 030 9.4
2019-Dec-08 06:10 031 1 gusting 2 9.4
2019-Dec-08 06:05 025 9.4
2019-Dec-08 06:00 048 0 gusting 2 9.4
2019-Dec-08 05:55 061 1 gusting 3 10.0
2019-Dec-08 05:50 034 1 gusting 3 10.0
2019-Dec-08 05:45 068 1 gusting 2 10.0
2019-Dec-08 05:40 033 10.0
2019-Dec-08 05:35 010 1 gusting 3 10.0
2019-Dec-08 05:25 014 1 gusting 3 10.0
2019-Dec-08 05:20 023 1 gusting 4 10.0
2019-Dec-08 05:15 041 0 gusting 4 10.0
2019-Dec-08 05:05 045 10.6
2019-Dec-08 05:00 336 10.6
2019-Dec-08 04:55 336 10.6
2019-Dec-08 04:50 335 0 gusting 1 10.6
2019-Dec-08 04:45 044 0 gusting 2 10.6
2019-Dec-08 04:40 044 0 gusting 2 10.6
2019-Dec-08 04:35 353 1 gusting 2 10.6
2019-Dec-08 04:30 023 0 gusting 3 10.6
2019-Dec-08 04:25 341 2 gusting 4 10.6
2019-Dec-08 04:20 350 2 gusting 3 10.6
2019-Dec-08 04:10 347 1 gusting 3 10.6
2019-Dec-08 04:05 023 1 gusting 3 10.6
2019-Dec-08 04:00 046 0 gusting 2 10.6
2019-Dec-08 03:55 037 1 gusting 2 10.6
2019-Dec-08 03:50 033 1 gusting 1 10.6
2019-Dec-08 03:45 026 1 gusting 1 10.6
2019-Dec-08 03:40 017 0 gusting 2 10.6
2019-Dec-08 03:35 030 10.6
2019-Dec-08 03:30 007 10.6
2019-Dec-08 03:25 006 0 gusting 1 10.6
2019-Dec-08 03:20 340 0 gusting 1 10.6
2019-Dec-08 03:10 037 1 gusting 1 10.6
2019-Dec-08 03:05 065 0 gusting 2 10.6
2019-Dec-08 03:00 065 10.6
2019-Dec-08 02:55 033 2 gusting 3 10.6
2019-Dec-08 02:50 035 0 gusting 2 10.6
2019-Dec-08 02:45 087 0 gusting 0 10.6
2019-Dec-08 02:40 033 0 gusting 0 10.6
2019-Dec-08 02:35 033 10.6
2019-Dec-08 02:30 087 10.6
2019-Dec-08 02:24 086 10.6
2019-Dec-08 02:20 085 10.6
2019-Dec-08 02:15 034 2 gusting 5 10.6
2019-Dec-08 02:10 066 2 gusting 5 10.6
2019-Dec-08 02:05 008 3 gusting 4 10.6
2019-Dec-08 02:00 338 2 gusting 4 10.6
2019-Dec-08 01:55 335 1 gusting 4 10.6
2019-Dec-08 01:50 040 2 gusting 4 10.6
2019-Dec-08 01:45 021 1 gusting 2 10.6
2019-Dec-08 01:40 035 1 gusting 2 10.6
2019-Dec-08 01:35 030 1 gusting 2 10.6
2019-Dec-08 01:30 025 0 gusting 0 10.6
2019-Dec-08 01:25 025 10.6
2019-Dec-08 01:20 025 0 gusting 1 10.6
2019-Dec-08 01:15 052 0 gusting 2 10.6
2019-Dec-08 01:10 025 2 gusting 3 10.6
2019-Dec-08 01:05 043 2 gusting 4 10.6
2019-Dec-08 01:00 050 2 gusting 4 10.6
2019-Dec-08 00:55 027 1 gusting 2 10.6
2019-Dec-08 00:50 039 1 gusting 2 10.6
2019-Dec-08 00:40 352 1 gusting 3 10.6
2019-Dec-08 00:35 058 1 gusting 3 10.0
2019-Dec-08 00:30 039 2 gusting 3 10.0
2019-Dec-08 00:20 038 10.0
2019-Dec-08 00:15 052 10.0
2019-Dec-08 00:10 012 10.0
2019-Dec-08 00:05 011 10.0
2019-Dec-08 00:00 069 10.0
2019-Dec-07 23:55 030 10.0
2019-Dec-07 23:50 030 1 gusting 1 10.0
2019-Dec-07 23:45 026 10.6
2019-Dec-07 23:40 027 10.6
2019-Dec-07 23:35 018 0 gusting 1 10.6
2019-Dec-07 23:30 011 10.6
2019-Dec-07 23:25 011 0 gusting 1 11.1
2019-Dec-07 23:20 031 0 gusting 2 10.6
2019-Dec-07 23:15 043 1 gusting 3 10.6
2019-Dec-07 23:10 020 2 gusting 3 10.6
2019-Dec-07 23:05 033 10.6
2019-Dec-07 23:00 034 10.6
2019-Dec-07 22:55 033 11.1
2019-Dec-07 22:45 045 2 gusting 3 11.1
2019-Dec-07 22:40 033 11.1
2019-Dec-07 22:35 328 1 gusting 3 11.1
2019-Dec-07 22:30 322 1 gusting 3 11.1
2019-Dec-07 22:25 047 1 gusting 3 10.6
2019-Dec-07 22:20 093 0 gusting 0 10.6
2019-Dec-07 22:15 359 10.6
2019-Dec-07 22:10 359 10.6
2019-Dec-07 22:05 358 0 gusting 0 10.6
2019-Dec-07 22:00 318 10.6
2019-Dec-07 21:55 318 10.6
2019-Dec-07 21:50 012 0 gusting 2 10.6
2019-Dec-07 21:45 031 1 gusting 2 10.6
2019-Dec-07 21:40 032 10.6
2019-Dec-07 21:35 031 0 gusting 2 10.0
2019-Dec-07 21:30 034 0 gusting 1 10.0
2019-Dec-07 21:25 065 0 gusting 2 10.6
2019-Dec-07 21:20 041 10.6
2019-Dec-07 21:15 029 2 gusting 3 10.6
2019-Dec-07 21:10 050 0 gusting 2 10.6
2019-Dec-07 21:05 314 1 gusting 2 10.6
2019-Dec-07 21:00 046 1 gusting 2 10.0
2019-Dec-07 20:55 027 0 gusting 1 10.0
2019-Dec-07 20:50 339 10.0
2019-Dec-07 20:45 339 1 gusting 1 10.0
2019-Dec-07 20:40 352 9.4
2019-Dec-07 20:35 057 9.4
2019-Dec-07 20:30 038 0 gusting 1 9.4
2019-Dec-07 20:25 074 1 gusting 1 9.4
2019-Dec-07 20:20 027 9.4
2019-Dec-07 20:15 027 9.4
2019-Dec-07 20:10 328 10.0
2019-Dec-07 20:05 328 10.0
2019-Dec-07 20:00 009 0 gusting 1 10.0
2019-Dec-07 19:55 049 10.0
2019-Dec-07 19:50 014 0 gusting 1 10.0
2019-Dec-07 19:45 335 0 gusting 2 10.0
2019-Dec-07 19:40 332 0 gusting 2 10.0
2019-Dec-07 19:35 030 10.0
2019-Dec-07 19:25 085 10.0
2019-Dec-07 19:20 025 0 gusting 2 10.6
2019-Dec-07 19:15 293 10.6
2019-Dec-07 19:05 293 10.6
2019-Dec-07 19:00 150 10.6
2019-Dec-07 18:50 247 0 gusting 2 10.6
2019-Dec-07 18:45 244 10.6
2019-Dec-07 18:40 233 0 gusting 2 10.6
2019-Dec-07 18:30 282 10.6
2019-Dec-07 18:25 240 10.6
2019-Dec-07 18:20 073 10.6
2019-Dec-07 18:10 245 11.1
2019-Dec-07 18:05 243 11.1
2019-Dec-07 18:00 345 11.1
2019-Dec-07 17:55 261 11.1
2019-Dec-07 17:50 266 11.1
2019-Dec-07 17:45 266 11.1
2019-Dec-07 17:35 205 0 gusting 3 11.1
2019-Dec-07 17:30 120 0 gusting 3 11.1
2019-Dec-07 17:25 234 0 gusting 1 11.7
2019-Dec-07 17:20 248 11.7
2019-Dec-07 17:15 009 11.7
2019-Dec-07 17:10 291 0 gusting 2 11.7
2019-Dec-07 17:00 327 11.7
2019-Dec-07 16:55 252 12.2
2019-Dec-07 16:50 260 0 gusting 2 11.7
2019-Dec-07 16:45 271 12.2
2019-Dec-07 16:40 282 12.2
2019-Dec-07 16:30 255 0 gusting 3 12.2
2019-Dec-07 16:25 231 12.8
2019-Dec-07 16:20 203 12.8
2019-Dec-07 16:15 250 13.3
2019-Dec-07 16:10 317 0 gusting 3 13.3
2019-Dec-07 16:00 043 13.9
2019-Dec-07 15:55 201 1 gusting 2 13.9
2019-Dec-07 15:50 129 13.9
2019-Dec-07 15:45 108 1 gusting 3 13.9
2019-Dec-07 15:40 288 13.9
2019-Dec-07 15:35 308 1 gusting 2 14.4
2019-Dec-07 15:30 337 0 gusting 2 13.9
2019-Dec-07 15:25 008 1 gusting 3 14.4
2019-Dec-07 15:20 101 1 gusting 3 14.4
2019-Dec-07 15:10 139 14.4
2019-Dec-07 15:05 143 0 gusting 3 15.0
2019-Dec-07 15:00 160 0 gusting 1 15.0
2019-Dec-07 14:55 020 15.0
2019-Dec-07 14:50 080 0 gusting 3 15.0
2019-Dec-07 14:45 101 1 gusting 7 15.0
2019-Dec-07 14:40 219 1 gusting 7 15.6
2019-Dec-07 14:35 136 15.0
2019-Dec-07 14:30 089 15.0
2019-Dec-07 14:20 077 2 gusting 6 15.6
2019-Dec-07 14:15 080 3 gusting 6 15.6
2019-Dec-07 14:10 347 0 gusting 4 15.6
2019-Dec-07 14:05 316 15.0
2019-Dec-07 14:00 093 0 gusting 6 15.0
2019-Dec-07 13:55 088 1 gusting 10 15.0
2019-Dec-07 13:50 117 1 gusting 10 15.0
2019-Dec-07 13:45 087 6 gusting 10 15.0
2019-Dec-07 13:40 116 3 gusting 6 15.0
2019-Dec-07 13:35 025 1 gusting 4 15.0
2019-Dec-07 13:25 345 2 gusting 7 15.0
2019-Dec-07 13:20 046 6 gusting 7 15.0
2019-Dec-07 13:15 328 4 gusting 6 15.0
2019-Dec-07 13:10 051 0 gusting 6 15.0
2019-Dec-07 13:05 049 3 gusting 7 15.0
2019-Dec-07 13:00 223 1 gusting 7 15.0
2019-Dec-07 12:50 347 2 gusting 6 15.0
2019-Dec-07 12:45 067 2 gusting 7 15.0
2019-Dec-07 12:40 062 4 gusting 8 15.0
2019-Dec-07 12:30 063 4 gusting 5 14.4
2019-Dec-07 12:25 290 0 gusting 2 14.4
2019-Dec-07 12:20 101 0 gusting 2 14.4
2019-Dec-07 12:10 013 2 gusting 7 14.4
2019-Dec-07 12:00 002 14.4
2019-Dec-07 11:55 023 3 gusting 6 14.4
2019-Dec-07 11:50 332 0 gusting 7 14.4
2019-Dec-07 11:45 334 2 gusting 7 14.4
2019-Dec-07 11:40 314 2 gusting 3 14.4
2019-Dec-07 11:35 272 1 gusting 4 14.4
2019-Dec-07 11:30 278 1 gusting 4 13.9
2019-Dec-07 11:25 037 2 gusting 12 13.9
2019-Dec-07 11:20 044 3 gusting 12 13.9
2019-Dec-07 11:15 004 3 gusting 10 13.9
2019-Dec-07 11:10 074 4 gusting 10 13.9
2019-Dec-07 11:05 121 1 gusting 6 13.9
2019-Dec-07 10:55 046 3 gusting 11 13.9
2019-Dec-07 10:50 098 6 gusting 11 13.9
2019-Dec-07 10:45 051 4 gusting 9 13.9
2019-Dec-07 10:40 037 0 gusting 8 13.9
2019-Dec-07 10:35 084 3 gusting 8 13.3
2019-Dec-07 10:25 101 2 gusting 8 13.3
2019-Dec-07 10:20 122 2 gusting 8 13.3
2019-Dec-07 10:15 027 1 gusting 4 13.3
2019-Dec-07 10:10 331 1 gusting 8 13.3
2019-Dec-07 10:05 097 4 gusting 8 13.3
2019-Dec-07 10:00 072 0 gusting 8 13.3
2019-Dec-07 09:55 054 3 gusting 8 13.3
2019-Dec-07 09:50 072 0 gusting 9 13.3
2019-Dec-07 09:45 021 2 gusting 9 13.3
2019-Dec-07 09:40 033 3 gusting 6 13.3
2019-Dec-07 09:35 042 0 gusting 3 13.3
2019-Dec-07 09:30 167 0 gusting 3 12.8
2019-Dec-07 09:25 090 1 gusting 3 12.8
2019-Dec-07 09:20 094 12.8
2019-Dec-07 09:10 356 1 gusting 3 12.8
2019-Dec-07 09:05 102 12.8
2019-Dec-07 09:00 120 0 gusting 3 12.8
2019-Dec-07 08:55 141 12.2
2019-Dec-07 08:50 358 12.2
2019-Dec-07 08:45 114 12.2
2019-Dec-07 08:40 114 12.2
2019-Dec-07 08:35 110 1 gusting 5 11.7
2019-Dec-07 08:25 049 1 gusting 3 10.6
2019-Dec-07 08:20 031 1 gusting 3 10.6
2019-Dec-07 08:15 026 1 gusting 3 10.6
2019-Dec-07 08:05 343 0 gusting 1 10.6
2019-Dec-07 08:00 334 0 gusting 2 10.6
2019-Dec-07 07:55 086 0 gusting 2 10.6
2019-Dec-07 07:50 347 0 gusting 2 10.0
2019-Dec-07 07:45 044 1 gusting 3 10.0
2019-Dec-07 07:40 026 2 gusting 3 10.0
2019-Dec-07 07:35 045 0 gusting 2 10.0
2019-Dec-07 07:30 004 1 gusting 2 10.0
2019-Dec-07 07:25 041 1 gusting 4 10.0
2019-Dec-07 07:20 038 2 gusting 4 10.0
2019-Dec-07 07:10 032 10.0
2019-Dec-07 07:05 031 10.0
2019-Dec-07 07:00 031 0 gusting 2 10.0
2019-Dec-07 06:55 032 1 gusting 2 10.0
2019-Dec-07 06:50 030 1 gusting 2 9.4
2019-Dec-07 06:45 023 9.4
2019-Dec-07 06:40 023 1 gusting 4 9.4
2019-Dec-07 06:35 031 3 gusting 4 10.0
2019-Dec-07 06:30 357 10.0
2019-Dec-07 06:25 017 10.0
2019-Dec-07 06:20 356 10.0
2019-Dec-07 06:10 352 9.4
2019-Dec-07 06:05 040 1 gusting 1 9.4
2019-Dec-07 06:00 048 0 gusting 1 9.4
2019-Dec-07 05:55 066 9.4
2019-Dec-07 05:50 010 0 gusting 1 9.4
2019-Dec-07 05:45 051 1 gusting 1 10.0
2019-Dec-07 05:40 051 10.0
2019-Dec-07 05:35 044 0 gusting 4 10.0
2019-Dec-07 05:30 015 3 gusting 4 10.0
2019-Dec-07 05:20 342 1 gusting 2 10.0
2019-Dec-07 05:15 002 1 gusting 2 10.0
2019-Dec-07 05:05 321 9.4
2019-Dec-07 05:00 320 9.4
2019-Dec-07 04:50 020 2 gusting 4 9.4
2019-Dec-07 04:45 019 3 gusting 6 9.4
2019-Dec-07 04:35 022 0 gusting 2 10.0
2019-Dec-07 04:30 347 10.0
2019-Dec-07 04:25 023 0 gusting 1 10.0
2019-Dec-07 04:20 342 9.4
2019-Dec-07 04:15 330 0 gusting 5 9.4
2019-Dec-07 04:10 354 3 gusting 5 10.0
2019-Dec-07 04:00 031 1 gusting 3 9.4
2019-Dec-07 03:55 050 9.4
2019-Dec-07 03:50 015 9.4
2019-Dec-07 03:45 025 0 gusting 1 9.4
2019-Dec-07 03:40 025 9.4
2019-Dec-07 03:30 045 8.9
2019-Dec-07 03:25 045 8.9
2019-Dec-07 03:15 045 8.9
2019-Dec-07 03:10 045 1 gusting 2 8.9
2019-Dec-07 03:05 018 0 gusting 1 8.9
2019-Dec-07 03:00 021 0 gusting 1 8.9
2019-Dec-07 02:55 338 9.4
2019-Dec-07 02:50 338 9.4
2019-Dec-07 02:45 338 9.4
2019-Dec-07 02:35 024 3 gusting 3 9.4
2019-Dec-07 02:30 027 1 gusting 2 8.9
2019-Dec-07 02:25 068 0 gusting 2 9.4
2019-Dec-07 02:20 027 9.4
2019-Dec-07 02:15 027 2 gusting 2 9.4
2019-Dec-07 02:05 030 9.4
2019-Dec-07 02:00 012 0 gusting 1 9.4
2019-Dec-07 01:55 021 0 gusting 1 9.4
2019-Dec-07 01:50 089 0 gusting 1 9.4
2019-Dec-07 01:45 067 0 gusting 2 9.4
2019-Dec-07 01:40 031 1 gusting 4 9.4
2019-Dec-07 01:35 020 3 gusting 5 9.4
2019-Dec-07 01:30 022 4 gusting 5 9.4
2019-Dec-07 01:25 342 2 gusting 2 9.4
2019-Dec-07 01:20 021 1 gusting 1 9.4
2019-Dec-07 01:15 076 9.4
2019-Dec-07 01:10 335 0 gusting 1 9.4
2019-Dec-07 01:00 025 9.4
2019-Dec-07 00:55 025 9.4
2019-Dec-07 00:50 025 9.4
2019-Dec-07 00:45 018 0 gusting 4 9.4
2019-Dec-07 00:40 332 1 gusting 4 9.4
2019-Dec-07 00:30 352 9.4
2019-Dec-07 00:25 011 1 gusting 3 9.4
2019-Dec-07 00:20 038 3 gusting 3 9.4
2019-Dec-07 00:15 044 0 gusting 5 9.4
2019-Dec-07 00:10 040 3 gusting 5 10.0
2019-Dec-07 00:05 327 0 gusting 2 9.4
2019-Dec-07 00:00 325 1 gusting 3 9.4